Location: Marcé
(47.5801°N, 0.3280°W)
Time: 19:10:42
(UTC+01:00)

Tiros 1 despin weight - Pass Details

Date: 08 December 2021
Orbit: 592 x 641 km, 48.2° (Epoch: 21 January)

Event Time Altitude Azimuth Distance (km) Brightness Sun altitude
Rises 19:07:44 0° 279° (W) 2,825 ? -19.0°
Reaches altitude 10° 19:11:07 10° 252° (WSW) 1,920 ? -19.5°
Maximum altitude 19:13:09 13° 224° (SW) 1,724 ? -19.8°
Drops below altitude 10° 19:15:12 10° 196° (SSW) 1,920 ? -20.2°
Sets 19:18:36 0° 169° (SSE) 2,824 ? -20.7°
